Погода в Чекмагуше

Россия / Республика Башкортостан     55°08′23″N   54°39′06″E
темп.,
°C
ветер,
м/с
пор.,
м/с
влажн.,
%
обл.,
%
осадки,
мм/ч
давл.,
гПа
погр.,
м
29 июля, чт
чт2923:00+15з115020 0.0 101411
02:00+12юз11615 0.0 101410
05:00+11зюз22645 0.0 101421
08:00+15з46568 0.0 1014241
11:00+21з55370 0.0 10131717
14:00+24з45285 0.0 10112348
17:00+25з4524100 0.0 10102722
20:00+22зюз3333100 0.0 100961
30 июля, пт
пт3023:00+19зюз51054100 0.0 1009400
02:00+16ююз2683100 0.2 1008174
05:00+16ю4108399 0.2 1006298
08:00+16юз51092100 5.5 1005495
11:00+19зюз5983100 6.7 1005776
14:00+21з5877100 0.1 1005874
17:00+23зсз696789 0.7 10051200
20:00+23зсз4859100 0.0 1006398
31 июля, сб
сб3123:00+22юз3861100 0.0 1007156
02:00+19юз367480 0.0 100796
05:00+19ююз387296 0.0 1007152
08:00+20зюз4108090 0.6 1008354
11:00+23ююз476592 0.8 1007527
14:00+28юз61046100 0.0 10061512
17:00+26зюз485590 0.4 1004181
20:00+27з51049100 0.1 1005492
1 августа, вс
вс123:00+20юз3382100 0.9 100731
02:00+18зюз3891100 0.1 1007124
05:00+18зюз488953 0.1 1008140
08:00+20з410760 0.0 1009372
11:00+27з611370 0.0 10092139
14:00+29зсз793157 0.0 10092830
17:00+29зсз793145 0.0 10102550
20:00+26зсз48415 0.0 1010309
2 августа, пн
пн223:00+20зсз225672 0.0 101219
02:00+19зюз226377 0.0 101211
05:00+18юз236881 0.0 101228
08:00+22юз35553 0.0 1013191
11:00+28зюз56344 0.0 10121148
14:00+30зсз463043 0.0 10121870
17:00+30сз143314 0.0 10111316
20:00+28зюз1140100 0.0 101015